Location: Beuvrequen
(50.8014°N, 1.6652°E)
Time: 11:53:27
(UTC+00:00)

Cosmos 1844 - Visible Passes

Search period start: 29 May 2022 00:00
Search period end: 08 June 2022 00:00
Orbit: 821 x 869 km, 70.9° (Epoch: 28 May)

Date Brightness Start Highest point End Pass type
(mag) Time Alt. Az. Time Alt. Az. Time Alt. Az.
29 May 5.7 00:00:15 10° WNW 00:03:21 15° W 00:05:47 12° WSW visible
29 May 3.8 22:00:18 10° NNW 22:06:08 80° WSW 22:10:11 21° SSE visible
29 May 5.7 23:46:08 10° WNW 23:49:21 15° W 23:52:03 11° SW visible
30 May 3.8 21:46:16 10° NNW 21:52:06 82° WSW 21:56:29 18° SSE visible
30 May 5.7 23:32:01 10° WNW 23:35:21 16° W 23:38:22 11° SW visible
31 May 3.8 21:32:14 10° NNW 21:38:05 84° WSW 21:42:49 16° SSE visible
31 May 5.7 23:17:54 10° WNW 23:21:21 16° W 23:24:42 10° SW visible
01 Jun 3.8 21:18:13 10° NNW 21:24:03 86° WSW 21:29:11 14° SSE visible
01 Jun 5.7 23:03:48 10° WNW 23:07:21 17° W 23:10:53 10° SW visible
02 Jun 3.8 21:04:11 10° NNW 21:10:02 88° WSW 21:15:35 11° SSE visible
02 Jun 5.8 22:49:42 10° WNW 22:53:21 17° W 22:56:59 10° SW visible
03 Jun 3.8 20:50:09 10° NNW 20:56:00 90° ENE 21:01:48 10° SSE visible
03 Jun 5.8 22:35:37 10° WNW 22:39:21 18° W 22:43:04 10° SW visible
04 Jun 3.8 20:36:07 10° NNW 20:41:59 88° ENE 20:47:46 10° SSE visible
04 Jun 5.8 22:21:31 10° WNW 22:25:21 18° W 22:29:10 10° SW visible
05 Jun 5.8 22:07:26 10° WNW 22:11:21 19° W 22:15:15 10° SW visible
06 Jun 5.8 21:53:21 10° NW 21:57:21 20° W 22:01:20 10° SW visible
07 Jun 5.8 21:39:16 10° NW 21:43:21 20° W 21:47:25 10° SW visible
